Theta_e
326 328 330 331 332 335 333 336 335 335 331 329 336 338 338 341 344 342 340 339 339 337 339 341 341 342 343 345 348 349 349 348 348
324 326 329 332 338 337 333 334 337 338 334 332 336 338 339 336 336 335 334 334 334 333 334 334 335 337 338 340 341 342 344 347 347
327 331 331 332 337 336 334 333 335 336 332 335 337 337 334 332 330 330 330 329 328 329 330 330 329 330 331 333 335 337 339 340 342
327 332 334 335 330 331 331 331 332 335 336 335 333 331 329 327 326 326 326 325 325 325 325 324 324 324 324 325 326 331 332 333 335
331 332 332 330 332 333 334 334 334 334 334 332 328 327 324 324 323 322 322 321 321 321 320 321 321 320 319 320 321 325 324 322 323
328 330 330 328 328 328 328 329 329 329 327 326 325 323 321 319 318 318 318 319 319 319 319 319 319 318 317 317 319 321 321 321 320
327 326 326 325 325 324 325 327 326 324 323 323 321 319 318 317 316 316 317 318 318 318 318 317 317 318 317 317 318 320 321 321 321
326 324 324 323 322 323 324 323 321 320 319 318 317 316 315 315 316 317 318 318 318 318 318 317 317 316 316 317 319 319 319 319 320
325 324 324 322 323 323 321 318 317 317 316 315 315 314 314 315 316 317 318 317 317 317 316 316 314 314 314 314 315 319 319 319 315
326 325 324 322 322 322 319 317 316 314 314 314 313 314 315 315 315 316 316 316 314 313 312 312 311 310 311 311 312 315 315 317 311
327 328 323 322 320 318 316 316 314 314 313 313 312 313 313 314 315 314 314 312 310 310 310 309 309 309 309 309 310 313 314 315 310
328 323 321 321 320 316 315 314 313 312 311 311 311 311 312 313 313 312 312 311 310 309 308 308 307 307 307 307 308 311 312 311 309
320 320 319 316 316 315 313 312 312 310 309 310 311 313 313 313 313 311 310 310 310 309 308 307 307 306 305 307 306 308 310 310 308
318 317 314 315 316 313 312 311 310 308 309 310 312 313 315 315 314 312 311 310 310 309 308 307 306 305 305 305 306 307 309 309 308
312 311 313 314 313 312 312 311 309 308 309 312 313 313 312 312 313 313 312 310 310 309 308 307 307 306 305 305 306 306 307 307 308
311 311 311 313 313 311 311 311 310 309 311 311 311 312 311 310 310 311 310 309 309 307 308 306 306 306 305 303 304 305 306 305 306
309 309 309 310 311 311 310 311 311 311 312 312 311 310 310 310 308 308 308 308 308 308 308 307 307 306 306 306 304 304 305 304 303
308 307 308 311 311 310 308 308 309 310 311 311 310 309 308 307 307 306 305 307 308 309 310 308 308 308 307 306 306 305 303 301 302
307 306 306 307 306 306 306 306 307 308 309 309 307 306 305 305 306 303 304 305 306 305 305 303 301 300 303 308 304 301 299 297 297
307 305 305 305 306 306 305 305 305 307 308 308 307 306 306 305 304 303 304 304 303 303 304 302 300 298 298 298 301 299 297 296 296
Wind_Speed
6 5 7 6 2 6 6 7 7 10 11 12 7 13 16 14 6 6 6 8 6 5 5 5 8 8 8 9 7 3 3 3 4
7 5 8 8 5 4 3 2 8 11 10 13 13 20 5 7 8 10 7 8 6 5 6 7 8 8 8 9 8 8 7 4 4
4 2 6 5 5 6 4 1 5 8 8 16 14 10 5 5 8 8 7 7 8 7 7 8 8 8 8 8 8 9 7 5 6
5 3 5 5 6 6 6 4 2 9 9 11 12 8 8 6 6 7 7 7 7 7 7 8 8 8 8 8 9 8 7 7 8
6 7 6 7 6 7 5 5 8 9 8 11 9 8 9 6 7 8 8 7 5 7 7 7 7 7 8 8 8 7 8 8 8
8 8 7 7 5 8 10 9 10 11 9 9 10 10 6 7 8 6 4 4 5 6 6 7 8 8 8 8 8 7 8 8 9
10 8 6 6 7 8 10 9 9 9 9 9 7 5 4 4 2 1 2 5 5 6 5 6 7 6 7 8 7 6 8 9 10
10 10 9 8 7 8 9 9 8 7 6 6 5 6 6 5 3 3 4 6 6 6 6 5 6 8 8 8 6 8 9 9 10
10 10 9 9 9 10 10 9 7 6 6 6 5 5 3 2 4 5 5 5 6 6 7 8 7 7 8 7 6 14 17 15 9
12 10 9 11 11 10 9 8 6 6 5 5 5 4 3 2 4 5 5 5 7 8 9 7 7 8 8 8 7 16 18 20 9
12 11 11 10 10 9 9 7 7 7 5 4 4 2 1 2 3 4 5 7 6 6 5 7 6 7 7 7 8 18 19 21 11
9 10 11 11 11 11 10 9 7 7 4 3 4 4 3 3 3 4 4 5 5 4 4 5 5 5 7 8 9 17 19 16 10
11 12 13 14 13 11 10 7 7 7 6 5 4 3 3 3 4 4 3 3 3 2 2 4 5 6 6 10 9 14 18 17 9
12 13 15 13 12 11 9 7 6 7 6 5 2 2 2 3 2 3 1 3 2 3 4 4 5 6 6 6 8 10 17 18 10
16 16 14 13 11 10 7 7 7 7 6 3 2 3 4 4 3 2 2 4 4 4 4 4 4 5 6 5 7 10 12 17 16
15 16 12 10 11 9 5 5 6 7 4 3 3 3 3 3 3 3 3 4 5 4 3 3 4 4 5 5 5 6 12 15 18
13 11 11 8 10 8 6 4 5 5 4 3 4 3 1 2 3 4 3 3 3 4 4 5 4 4 5 5 5 5 5 7 7
12 11 8 8 8 7 6 4 4 3 3 3 3 1 2 3 3 4 4 3 4 4 5 5 3 4 4 4 6 4 4 4 7
12 11 7 6 6 7 5 4 4 3 2 3 2 2 1 1 2 2 3 3 5 8 12 14 8 12 9 4 10 10 12 9 10
12 10 8 8 8 6 6 5 4 2 2 2 2 3 3 2 2 2 3 2 2 4 7 6 9 9 8 10 13 8 11 11 11
Wind_Direction
129 132 94 100 164 132 145 168 179 129 127 65 75 57 357 321 36 64 55 45 36 38 30 30 11 22 14 10 7 347 283 252 265
141 160 127 138 180 126 157 244 261 194 122 110 69 60 331 334 34 49 49 41 41 28 22 24 15 14 17 6 8 7 355 320 290
127 138 129 148 135 155 118 171 293 38 53 88 84 85 64 22 31 40 39 36 39 26 28 27 17 11 7 7 2 357 2 347 342
121 82 39 105 108 88 94 109 3 66 66 81 85 78 64 29 27 36 41 41 33 27 29 25 25 14 9 6 357 355 3 360 354
82 77 75 93 89 91 92 83 78 96 76 79 80 73 61 40 38 29 27 27 30 32 30 27 23 15 13 2 1 9 11 353 341
118 112 116 104 100 101 95 85 82 82 84 85 66 59 56 41 37 28 16 18 33 33 31 27 24 23 10 1 0 9 356 337 331
124 124 134 119 100 92 82 78 84 84 78 79 91 105 104 82 70 71 26 30 29 32 26 27 25 12 6 1 352 358 346 335 326
125 127 135 132 120 104 95 89 79 83 91 103 88 64 52 34 350 32 38 28 19 16 15 10 14 13 8 358 352 4 353 343 329
148 153 153 137 128 117 116 113 105 94 82 72 75 75 68 8 17 23 34 29 20 12 8 12 8 8 2 360 354 353 348 344 334
168 164 148 143 137 131 122 119 128 111 96 81 80 79 45 11 30 33 30 38 25 19 21 15 11 10 5 358 347 359 354 349 340
163 155 147 138 129 121 121 128 111 100 93 98 97 112 50 30 71 54 45 45 30 24 15 12 8 3 358 353 1 3 360 354 342
156 144 142 135 133 134 134 124 116 110 121 153 171 164 119 94 83 59 44 37 17 16 11 8 2 356 358 358 354 1 5 359 350
120 128 132 132 133 131 123 135 134 138 166 178 156 125 147 124 88 76 43 6 1 15 14 358 359 1 5 6 355 357 3 6 359
125 130 126 125 129 131 133 135 142 155 166 144 138 87 113 90 79 74 13 350 352 350 354 351 358 356 345 348 352 346 0 7 6
127 126 126 125 125 133 151 162 160 148 127 147 91 80 65 43 31 13 353 338 326 336 339 336 336 339 339 338 341 348 354 1 5
135 130 128 130 132 137 160 163 141 122 146 116 87 91 58 21 352 337 342 334 326 325 319 309 309 317 312 312 330 336 348 354 355
123 128 131 129 133 143 148 142 115 137 149 121 96 98 22 322 318 316 316 296 287 289 297 303 298 299 298 301 312 322 343 349 346
135 130 127 136 146 146 132 126 132 153 151 123 97 66 359 346 341 329 316 284 262 275 266 227 279 283 268 281 294 285 297 312 335
133 133 131 128 125 121 141 146 179 189 132 123 114 52 42 312 324 329 320 329 323 239 254 289 264 260 245 274 239 278 292 300 314
132 128 132 138 150 147 152 163 183 196 170 157 172 193 206 255 288 293 288 295 290 308 320 282 284 293 292 239 260 270 279 291 315